Simultaneous Nadir Overpasses (SNOs) Predictions

Prediction of SNOs between GOES-14 and NOAA-20 Satellite Orbit:

Table of predicted SNOs for the next 14.0 days since TLE Epoch: 2/5/2022
Index Date Time (GOES-14) GOES-14 Lat,Lon NOAA-20 Lat,Lon Distance(km) Time Diff (sec)
1 02/05/2022 20:07:48 -0.02,-104.31 0.71,-101.17 359.55 80
2 02/07/2022 08:29:38 0.02,-104.62 0.42,-106.45 208.79 80
3 02/08/2022 08:13:34 0.02,-104.62 -0.58,-101.92 307.98 80
4 02/09/2022 20:35:32 -0.02,-104.34 -0.67,-107.22 327.78 80
5 02/10/2022 20:14:08 -0.02,-104.34 0.34,-102.69 188.06 80
6 02/12/2022 08:35:59 0.02,-104.63 0.79,-107.97 381.96 80
7 02/13/2022 08:19:55 0.02,-104.63 -0.22,-103.44 134.79 80
8 02/14/2022 20:41:52 -0.02,-104.36 -1.03,-108.74 499.41 80
9 02/15/2022 20:20:30 -0.01,-104.36 0.05,-104.22 16.51 80
10 02/18/2022 08:23:37 0.01,-104.64 0.07,-104.98 38.66 80
